SCP
0 0 -0 -0 -0 -0 -0 -0 -0 -0 -0 -0 -0 -0 -0 -0 -0 0 0 0 0 0 0 0 0 0 0 0 0 0 0 0 0 0 0 0 0 0 0 0 0 0 0
-0 0 -0 -0 -0 -0 -0 -0 -0 -0 -0 0 0 0 0 0 0 0 0 0 0 0 0 0 0 0 0 0 0 0 0 0 0 0 0 0 0 0 0 0 0 0 0
-0 0 0 -0 -0 -0 -0 -0 0 0 0 0 0 0 0 0 0 0 0 0 0 0 0 0 0 0 0 0 0 0 0 0 0 0 0 0 0 0 0 0 0 0 0
-0 0 0 -0 0 0 0 0 0 0 0 0 0 0 0 0 0 0 0 0 0 0 0 0 0 0 0 0 0 0 0 0 0 0 0 0 0 0 0 0 0 1 0
0 0 0 -0 0 0 0 0 0 0 0 0 0 0 0 0 0 0 0 0 0 0 0 0 0 0 0 0 0 0 0 0 0 0 0 0 1 1 0 1 0 0 0
0 0 0 0 0 0 0 0 0 0 0 0 0 0 0 0 0 0 0 0 0 0 0 0 0 0 0 0 0 0 0 0 0 0 0 0 0 1 1 0 1 1 1
0 0 0 0 0 0 0 0 0 0 0 0 0 0 0 0 0 0 0 0 0 0 0 0 0 0 0 0 0 0 0 0 0 0 0 0 0 1 1 0 1 1 1
0 0 0 0 0 0 0 0 0 0 0 0 0 0 0 0 0 0 0 0 0 0 0 0 0 0 0 0 0 0 0 0 0 0 0 0 0 1 0 0 0 1 1
0 0 0 0 0 0 0 0 0 0 0 0 0 0 0 0 0 0 0 0 0 0 0 0 0 0 0 0 0 -0 0 0 0 0 0 0 1 1 0 0 0 0 1
0 0 0 0 0 0 0 0 0 0 0 0 0 0 0 0 0 0 0 0 0 -0 -0 -0 -0 -0 0 0 0 0 0 0 0 0 0 0 1 0 0 0 0 0 0
0 0 0 0 0 0 0 0 0 0 0 0 -0 0 0 0 0 -0 0 0 -0 0 -0 -0 -0 -0 0 0 0 0 0 0 0 0 0 0 0 0 0 0 0 0 0
0 -0 0 0 0 0 0 0 0 0 0 -0 -0 -0 0 0 0 0 0 0 0 -0 -0 -0 -0 -0 0 0 0 0 0 0 0 0 0 0 0 0 0 0 0 0 0
0 0 0 0 0 0 0 0 0 0 0 0 0 -0 -0 0 0 0 0 0 0 0 0 0 0 0 0 0 0 0 0 0 0 0 0 0 0 0 0 0 0 0 0
0 0 0 0 0 0 0 0 0 0 0 0 0 0 0 0 0 0 0 0 0 0 0 0 0 0 0 0 0 0 0 0 0 0 0 0 0 0 -0 -0 -0 -0 0
0 0 0 0 0 0 0 0 0 0 0 0 0 0 0 0 0 0 0 0 0 0 0 0 0 0 0 0 0 0 0 0 0 0 0 0 0 0 -0 -0 0 0 0
0 0 0 0 0 0 0 0 0 0 0 0 0 0 0 0 0 0 0 0 0 0 0 0 0 0 0 0 0 0 0 0 0 0 0 0 0 0 0 0 0 0 0
0 0 0 0 0 0 0 0 0 0 0 0 0 0 0 0 0 0 0 0 0 0 0 0 0 0 0 0 0 0 0 0 0 0 0 0 0 0 0 0 0 0 0
0 0 0 0 0 0 0 0 0 0 0 0 0 0 0 0 0 0 0 0 0 0 0 0 0 0 0 0 0 0 0 0 -0 0 0 0 0 0 0 0 0 0 0
0 0 0 0 0 0 0 0 0 0 0 0 0 0 0 0 0 0 0 0 0 0 0 0 0 0 0 0 0 0 0 0 -0 0 0 0 0 0 0 0 0 0 0
0 0 0 0 0 0 0 0 0 0 0 0 0 0 0 0 0 0 0 0 0 0 0 0 0 0 0 0 0 0 0 0 0 -0 0 0 0 0 0 0 0 0 0
1 1 0 0 0 0 0 0 0 0 0 -0 0 0 0 0 0 0 0 0 0 0 0 0 0 0 0 0 0 0 0 0 0 0 0 0 0 0 0 0 0 0 0
0 0 0 0 0 0 0 0 0 0 0 0 0 0 0 0 0 0 0 0 0 0 0 0 0 0 0 0 0 0 0 0 0 0 0 0 0 0 0 0 0 0 0
0 0 0 0 0 0 0 0 0 0 -0 -0 -0 0 0 0 0 0 0 0 0 0 0 0 0 0 0 0 0 0 0 0 0 0 0 0 0 0 0 0 0 0 0
0 0 0 0 0 0 0 0 0 0 0 0 0 0 0 0 0 0 0 0 0 0 0 0 0 0 0 0 0 0 0 0 0 0 0 0 0 0 0 0 0 0 0
0 0 0 0 0 0 0 0 -0 0 0 0 0 0 0 0 0 0 0 0 0 0 0 0 0 0 0 0 0 0 0 0 0 0 0 0 0 0 0 0 0 0 0
0 0 0 0 0 0 0 0 0 0 0 0 0 -0 0 0 0 0 0 0 0 0 0 0 0 0 0 0 0 0 0 0 0 0 0 0 0 0 0 0 0 0 0
Wind_Speed_500mb
24 24 21 20 19 17 16 15 14 12 12 12 11 10 8 6 5 4 3 1 1 2 4 5 4 3 6 7 9 10 11 10 10 10 8 6 6 5 4 7 8 13 11
27 28 24 20 17 16 15 13 12 12 12 12 11 10 9 6 4 2 1 3 5 6 7 8 8 8 6 7 10 11 11 10 9 9 10 12 11 9 3 5 5 8 9
26 32 27 21 17 13 12 12 10 9 9 7 7 6 5 4 2 2 3 6 7 9 9 10 10 11 10 10 10 11 12 11 9 8 9 8 11 3 1 5 9 14 10
29 31 26 21 16 14 13 11 10 9 6 4 2 1 1 2 3 5 6 8 9 11 12 13 13 14 14 14 14 13 13 12 12 16 13 5 11 14 5 4 8 13 11
30 30 25 20 17 15 13 11 9 7 5 3 1 1 3 5 7 9 10 11 13 15 17 16 15 15 15 16 17 18 17 14 13 19 17 5 5 17 9 8 13 14 15
32 28 25 21 18 15 13 11 9 8 8 7 7 6 6 5 6 7 9 11 13 14 15 16 17 18 17 16 15 16 18 18 18 21 25 10 12 20 16 13 16 20 18
31 25 26 21 19 16 13 12 12 10 10 7 6 5 5 6 8 9 11 15 19 20 20 20 18 17 16 15 16 16 15 15 20 24 32 6 16 26 26 29 23 23 24
22 17 27 23 21 18 16 15 14 12 11 10 9 8 8 11 11 16 13 18 22 21 20 19 19 19 18 16 14 14 14 15 14 20 31 18 25 34 28 28 27 25 29
28 21 23 22 20 19 18 15 13 11 10 9 9 9 10 11 11 15 16 22 29 24 20 18 17 16 15 12 14 19 19 12 7 9 24 27 23 34 28 30 29 29 31
34 29 24 28 19 19 19 13 10 9 6 4 4 7 10 10 13 18 23 24 29 27 21 19 19 15 11 11 14 16 17 17 15 13 7 15 18 32 34 33 34 32 34
51 42 32 29 28 24 12 9 4 6 3 7 5 5 6 9 7 15 21 20 21 24 21 22 19 16 12 8 14 8 10 13 17 21 8 11 25 28 28 31 33 38 39
65 54 44 36 27 22 18 13 6 8 2 6 4 5 4 3 11 13 14 20 12 20 16 20 15 15 11 11 13 8 6 15 13 23 11 11 17 24 27 30 36 44 48
56 56 56 40 28 23 28 19 12 10 9 6 9 3 6 6 6 5 10 21 15 21 23 22 17 15 13 25 36 22 15 20 15 18 12 12 18 24 29 32 39 46 46
60 60 64 44 36 29 24 16 15 13 12 8 13 4 9 8 8 11 20 21 18 27 25 28 20 12 19 22 31 14 13 19 26 28 27 28 30 33 38 43 45 42 41
59 54 52 44 31 40 29 21 18 9 8 9 6 10 13 21 21 24 18 27 27 26 31 31 20 28 28 35 36 17 22 27 27 28 36 34 36 38 39 40 35 30 30
62 58 40 31 27 41 34 30 32 31 26 18 21 28 35 31 28 27 28 29 33 29 27 33 38 42 42 33 22 20 24 29 33 32 32 25 28 38 43 35 37 34 28
49 50 48 31 37 44 46 42 33 27 19 28 27 25 23 26 30 23 28 22 14 25 35 37 33 37 31 34 34 32 32 32 32 38 41 36 38 38 32 37 31 37 32
43 48 43 45 42 44 38 39 37 30 24 26 18 19 24 28 26 21 16 19 22 27 40 42 41 47 36 40 40 42 40 39 44 43 47 49 44 38 30 30 33 27 28
51 39 35 46 47 39 37 37 38 29 30 29 30 22 24 25 30 17 20 22 20 29 38 47 44 46 47 44 47 51 50 45 46 41 34 30 35 43 42 41 42 38 32
48 45 45 52 49 40 33 28 29 27 18 16 21 28 37 35 29 28 26 31 39 48 38 43 40 37 39 42 46 53 58 57 56 61 58 49 50 51 48 37 37 36 32
53 57 55 50 38 32 32 33 33 25 24 23 26 27 38 34 31 34 36 35 30 36 44 43 43 44 43 43 48 50 53 58 62 61 50 54 49 50 35 36 44 38 40
39 20 3 32 27 33 32 31 33 15 23 25 30 28 34 34 37 41 39 38 30 40 30 32 36 39 45 43 49 47 50 57 50 44 40 42 52 53 35 31 28 29 32
50 27 10 34 36 35 36 43 24 26 35 14 38 30 34 41 42 33 34 37 37 39 39 39 39 42 51 47 50 44 31 15 32 33 25 11 19 37 37 40 44 39 38
32 9 25 31 31 26 9 19 25 20 25 28 27 10 14 21 26 33 37 38 49 48 48 43 38 47 52 64 51 47 47 47 50 46 52 41 32 36 40 38 46 44 39
24 13 12 31 32 25 12 13 5 20 29 26 19 20 19 31 37 38 45 60 45 49 44 43 49 49 55 59 53 47 48 47 41 48 55 61 47 39 36 35 44 41 40
14 17 18 26 20 13 27 5 10 24 33 33 42 41 43 48 49 43 27 19 22 32 42 46 47 53 57 60 53 45 47 51 50 46 48 54 54 50 43 39 40 40 35
Wind_Direction_500mb
170 167 149 143 140 136 127 121 119 115 114 112 114 115 113 113 105 105 121 169 214 319 336 346 337 274 247 233 217 209 197 188 176 176 170 148 133 128 157 171 165 131 119
172 170 153 146 140 132 127 119 112 99 89 88 85 89 96 99 101 104 307 298 304 304 306 306 307 302 294 284 272 258 241 226 205 188 175 144 131 106 76 237 215 158 153
175 164 157 149 142 132 124 120 114 104 98 92 88 85 81 76 59 14 329 315 311 310 310 308 303 296 291 283 273 262 256 246 230 188 142 140 163 206 179 248 235 188 174
171 164 162 152 152 146 142 138 138 133 131 126 102 62 325 311 304 306 302 303 309 311 312 308 303 297 290 282 277 270 262 248 217 192 181 230 236 228 208 268 248 223 202
179 172 165 160 155 155 154 149 154 142 138 135 104 332 319 318 316 312 310 311 309 310 308 307 304 300 294 288 278 269 260 249 226 195 187 189 351 209 216 244 240 235 214
178 171 170 161 159 160 164 160 148 128 111 90 73 59 46 35 16 357 347 339 333 327 318 314 312 308 304 297 290 281 270 254 234 201 183 183 257 258 236 247 257 243 234
177 171 173 169 167 168 168 157 139 123 101 87 70 53 44 39 33 22 15 13 359 346 336 332 328 322 316 311 307 299 288 269 244 215 203 216 233 268 260 254 261 249 240
178 187 190 181 176 174 167 153 138 125 112 102 88 80 77 70 67 42 46 27 1 346 336 329 327 323 329 337 346 346 325 291 261 231 211 205 207 257 266 258 258 250 241
196 182 183 189 184 176 163 156 146 134 120 107 90 88 100 80 61 47 45 18 15 9 354 348 344 336 337 354 28 17 358 339 291 243 217 209 235 239 256 265 267 260 245
198 206 192 178 180 176 150 150 153 149 127 100 88 83 101 69 33 15 15 17 19 8 13 27 23 21 32 78 23 22 43 74 50 18 199 236 257 242 256 260 269 270 254
204 205 193 179 169 175 176 177 170 184 58 22 67 39 100 77 11 352 4 0 6 6 9 20 20 36 52 37 19 26 54 20 351 354 330 264 234 245 255 261 264 269 267
195 212 206 177 177 186 188 194 252 217 286 335 337 100 142 9 312 330 347 329 334 358 344 354 10 15 342 301 323 306 271 343 352 350 357 243 253 265 268 270 273 276 273
206 208 205 179 169 194 185 196 222 232 228 266 244 144 164 295 291 5 324 324 317 336 325 327 336 337 320 322 303 262 261 299 277 303 319 302 284 291 291 284 280 280 276
203 209 194 178 177 185 213 232 247 241 222 251 228 265 288 290 303 291 299 308 306 314 309 297 304 297 312 301 308 329 283 282 259 252 278 285 285 293 300 296 294 291 273
190 179 185 192 202 191 203 209 189 159 219 249 202 292 233 286 284 281 275 279 295 285 301 283 267 276 280 298 299 281 285 278 293 291 259 270 280 284 292 296 307 305 291
200 196 192 221 230 202 192 199 215 225 227 249 257 273 281 290 284 281 293 276 279 279 291 287 279 278 285 296 311 297 285 283 291 300 300 292 294 293 282 286 294 295 301
204 205 199 211 207 202 206 222 233 225 238 262 266 269 283 278 281 286 291 312 303 295 292 298 282 294 289 283 288 280 288 287 282 286 288 279 289 298 283 278 285 282 279
201 202 195 208 219 213 229 245 237 233 221 246 248 259 286 267 271 290 269 302 304 302 290 291 293 289 280 276 276 271 271 271 273 278 279 276 282 284 281 275 277 280 270
202 198 217 215 223 237 246 251 244 227 237 246 250 259 271 275 263 262 278 277 284 285 308 300 287 292 281 279 269 271 267 263 276 270 265 268 273 281 280 274 275 267 268
202 214 221 209 213 234 243 256 243 233 263 271 280 256 268 281 247 268 270 274 292 283 274 284 295 298 301 296 295 284 275 265 268 271 265 263 262 268 273 268 275 259 258
208 201 212 201 209 219 237 252 250 260 273 269 271 266 262 264 271 273 289 288 297 284 288 296 306 288 295 309 306 298 291 280 272 271 266 262 250 258 264 260 252 252 253
191 128 294 249 222 222 234 228 257 232 272 297 285 286 273 274 282 284 288 288 282 306 289 284 312 305 303 298 304 304 302 303 295 279 272 267 256 249 246 250 238 238 256
214 226 281 218 229 232 242 258 236 221 280 281 266 279 263 272 272 284 275 273 285 290 281 290 301 308 312 310 299 294 295 288 306 301 237 232 242 243 239 248 257 257 267
219 102 225 228 242 244 303 276 298 298 254 280 287 284 275 291 289 282 276 285 288 287 276 280 291 306 305 316 306 288 286 284 282 293 268 272 263 252 242 250 256 263 257
215 247 198 229 244 246 340 136 88 260 266 262 270 283 267 277 289 297 285 292 287 281 275 281 299 304 305 309 307 292 290 287 284 271 277 278 263 262 257 244 256 255 250
247 194 268 244 262 154 170 256 255 273 273 277 282 273 289 284 288 291 311 306 289 284 285 287 296 302 304 300 299 287 284 285 289 281 273 277 280 273 257 256 256 260 255
Wind_Speed_850mb
24 24 21 20 19 17 16 15 14 12 12 12 11 10 8 6 5 4 3 1 1 2 4 5 4 3 6 7 9 10 11 10 10 10 8 6 6 5 4 7 8 13 11
27 28 24 20 17 16 15 13 12 12 12 12 11 10 9 6 4 2 1 3 5 6 7 8 8 8 6 7 10 11 11 10 9 9 10 12 11 9 3 5 5 8 9
26 32 27 21 17 13 12 12 10 9 9 7 7 6 5 4 2 2 3 6 7 9 9 10 10 11 10 10 10 11 12 11 9 8 9 8 11 3 1 5 9 14 10
29 31 26 21 16 14 13 11 10 9 6 4 2 1 1 2 3 5 6 8 9 11 12 13 13 14 14 14 14 13 13 12 12 16 13 5 11 14 5 4 8 13 11
30 30 25 20 17 15 13 11 9 7 5 3 1 1 3 5 7 9 10 11 13 15 17 16 15 15 15 16 17 18 17 14 13 19 17 5 5 17 9 8 13 14 15
32 28 25 21 18 15 13 11 9 8 8 7 7 6 6 5 6 7 9 11 13 14 15 16 17 18 17 16 15 16 18 18 18 21 25 10 12 20 16 13 16 20 18
31 25 26 21 19 16 13 12 12 10 10 7 6 5 5 6 8 9 11 15 19 20 20 20 18 17 16 15 16 16 15 15 20 24 32 6 16 26 26 29 23 23 24
22 17 27 23 21 18 16 15 14 12 11 10 9 8 8 11 11 16 13 18 22 21 20 19 19 19 18 16 14 14 14 15 14 20 31 18 25 34 28 28 27 25 29
28 21 23 22 20 19 18 15 13 11 10 9 9 9 10 11 11 15 16 22 29 24 20 18 17 16 15 12 14 19 19 12 7 9 24 27 23 34 28 30 29 29 31
34 29 24 28 19 19 19 13 10 9 6 4 4 7 10 10 13 18 23 24 29 27 21 19 19 15 11 11 14 16 17 17 15 13 7 15 18 32 34 33 34 32 34
51 42 32 29 28 24 12 9 4 6 3 7 5 5 6 9 7 15 21 20 21 24 21 22 19 16 12 8 14 8 10 13 17 21 8 11 25 28 28 31 33 38 39
65 54 44 36 27 22 18 13 6 8 2 6 4 5 4 3 11 13 14 20 12 20 16 20 15 15 11 11 13 8 6 15 13 23 11 11 17 24 27 30 36 44 48
56 56 56 40 28 23 28 19 12 10 9 6 9 3 6 6 6 5 10 21 15 21 23 22 17 15 13 25 36 22 15 20 15 18 12 12 18 24 29 32 39 46 46
60 60 64 44 36 29 24 16 15 13 12 8 13 4 9 8 8 11 20 21 18 27 25 28 20 12 19 22 31 14 13 19 26 28 27 28 30 33 38 43 45 42 41
59 54 52 44 31 40 29 21 18 9 8 9 6 10 13 21 21 24 18 27 27 26 31 31 20 28 28 35 36 17 22 27 27 28 36 34 36 38 39 40 35 30 30
62 58 40 31 27 41 34 30 32 31 26 18 21 28 35 31 28 27 28 29 33 29 27 33 38 42 42 33 22 20 24 29 33 32 32 25 28 38 43 35 37 34 28
49 50 48 31 37 44 46 42 33 27 19 28 27 25 23 26 30 23 28 22 14 25 35 37 33 37 31 34 34 32 32 32 32 38 41 36 38 38 32 37 31 37 32
43 48 43 45 42 44 38 39 37 30 24 26 18 19 24 28 26 21 16 19 22 27 40 42 41 47 36 40 40 42 40 39 44 43 47 49 44 38 30 30 33 27 28
51 39 35 46 47 39 37 37 38 29 30 29 30 22 24 25 30 17 20 22 20 29 38 47 44 46 47 44 47 51 50 45 46 41 34 30 35 43 42 41 42 38 32
48 45 45 52 49 40 33 28 29 27 18 16 21 28 37 35 29 28 26 31 39 48 38 43 40 37 39 42 46 53 58 57 56 61 58 49 50 51 48 37 37 36 32
53 57 55 50 38 32 32 33 33 25 24 23 26 27 38 34 31 34 36 35 30 36 44 43 43 44 43 43 48 50 53 58 62 61 50 54 49 50 35 36 44 38 40
39 20 3 32 27 33 32 31 33 15 23 25 30 28 34 34 37 41 39 38 30 40 30 32 36 39 45 43 49 47 50 57 50 44 40 42 52 53 35 31 28 29 32
50 27 10 34 36 35 36 43 24 26 35 14 38 30 34 41 42 33 34 37 37 39 39 39 39 42 51 47 50 44 31 15 32 33 25 11 19 37 37 40 44 39 38
32 9 25 31 31 26 9 19 25 20 25 28 27 10 14 21 26 33 37 38 49 48 48 43 38 47 52 64 51 47 47 47 50 46 52 41 32 36 40 38 46 44 39
24 13 12 31 32 25 12 13 5 20 29 26 19 20 19 31 37 38 45 60 45 49 44 43 49 49 55 59 53 47 48 47 41 48 55 61 47 39 36 35 44 41 40
14 17 18 26 20 13 27 5 10 24 33 33 42 41 43 48 49 43 27 19 22 32 42 46 47 53 57 60 53 45 47 51 50 46 48 54 54 50 43 39 40 40 35
Wind_Direction_850mb
170 167 149 143 140 136 127 121 119 115 114 112 114 115 113 113 105 105 121 169 214 319 336 346 337 274 247 233 217 209 197 188 176 176 170 148 133 128 157 171 165 131 119
172 170 153 146 140 132 127 119 112 99 89 88 85 89 96 99 101 104 307 298 304 304 306 306 307 302 294 284 272 258 241 226 205 188 175 144 131 106 76 237 215 158 153
175 164 157 149 142 132 124 120 114 104 98 92 88 85 81 76 59 14 329 315 311 310 310 308 303 296 291 283 273 262 256 246 230 188 142 140 163 206 179 248 235 188 174
171 164 162 152 152 146 142 138 138 133 131 126 102 62 325 311 304 306 302 303 309 311 312 308 303 297 290 282 277 270 262 248 217 192 181 230 236 228 208 268 248 223 202
179 172 165 160 155 155 154 149 154 142 138 135 104 332 319 318 316 312 310 311 309 310 308 307 304 300 294 288 278 269 260 249 226 195 187 189 351 209 216 244 240 235 214
178 171 170 161 159 160 164 160 148 128 111 90 73 59 46 35 16 357 347 339 333 327 318 314 312 308 304 297 290 281 270 254 234 201 183 183 257 258 236 247 257 243 234
177 171 173 169 167 168 168 157 139 123 101 87 70 53 44 39 33 22 15 13 359 346 336 332 328 322 316 311 307 299 288 269 244 215 203 216 233 268 260 254 261 249 240
178 187 190 181 176 174 167 153 138 125 112 102 88 80 77 70 67 42 46 27 1 346 336 329 327 323 329 337 346 346 325 291 261 231 211 205 207 257 266 258 258 250 241
196 182 183 189 184 176 163 156 146 134 120 107 90 88 100 80 61 47 45 18 15 9 354 348 344 336 337 354 28 17 358 339 291 243 217 209 235 239 256 265 267 260 245
198 206 192 178 180 176 150 150 153 149 127 100 88 83 101 69 33 15 15 17 19 8 13 27 23 21 32 78 23 22 43 74 50 18 199 236 257 242 256 260 269 270 254
204 205 193 179 169 175 176 177 170 184 58 22 67 39 100 77 11 352 4 0 6 6 9 20 20 36 52 37 19 26 54 20 351 354 330 264 234 245 255 261 264 269 267
195 212 206 177 177 186 188 194 252 217 286 335 337 100 142 9 312 330 347 329 334 358 344 354 10 15 342 301 323 306 271 343 352 350 357 243 253 265 268 270 273 276 273
206 208 205 179 169 194 185 196 222 232 228 266 244 144 164 295 291 5 324 324 317 336 325 327 336 337 320 322 303 262 261 299 277 303 319 302 284 291 291 284 280 280 276
203 209 194 178 177 185 213 232 247 241 222 251 228 265 288 290 303 291 299 308 306 314 309 297 304 297 312 301 308 329 283 282 259 252 278 285 285 293 300 296 294 291 273
190 179 185 192 202 191 203 209 189 159 219 249 202 292 233 286 284 281 275 279 295 285 301 283 267 276 280 298 299 281 285 278 293 291 259 270 280 284 292 296 307 305 291
200 196 192 221 230 202 192 199 215 225 227 249 257 273 281 290 284 281 293 276 279 279 291 287 279 278 285 296 311 297 285 283 291 300 300 292 294 293 282 286 294 295 301
204 205 199 211 207 202 206 222 233 225 238 262 266 269 283 278 281 286 291 312 303 295 292 298 282 294 289 283 288 280 288 287 282 286 288 279 289 298 283 278 285 282 279
201 202 195 208 219 213 229 245 237 233 221 246 248 259 286 267 271 290 269 302 304 302 290 291 293 289 280 276 276 271 271 271 273 278 279 276 282 284 281 275 277 280 270
202 198 217 215 223 237 246 251 244 227 237 246 250 259 271 275 263 262 278 277 284 285 308 300 287 292 281 279 269 271 267 263 276 270 265 268 273 281 280 274 275 267 268
202 214 221 209 213 234 243 256 243 233 263 271 280 256 268 281 247 268 270 274 292 283 274 284 295 298 301 296 295 284 275 265 268 271 265 263 262 268 273 268 275 259 258
208 201 212 201 209 219 237 252 250 260 273 269 271 266 262 264 271 273 289 288 297 284 288 296 306 288 295 309 306 298 291 280 272 271 266 262 250 258 264 260 252 252 253
191 128 294 249 222 222 234 228 257 232 272 297 285 286 273 274 282 284 288 288 282 306 289 284 312 305 303 298 304 304 302 303 295 279 272 267 256 249 246 250 238 238 256
214 226 281 218 229 232 242 258 236 221 280 281 266 279 263 272 272 284 275 273 285 290 281 290 301 308 312 310 299 294 295 288 306 301 237 232 242 243 239 248 257 257 267
219 102 225 228 242 244 303 276 298 298 254 280 287 284 275 291 289 282 276 285 288 287 276 280 291 306 305 316 306 288 286 284 282 293 268 272 263 252 242 250 256 263 257
215 247 198 229 244 246 340 136 88 260 266 262 270 283 267 277 289 297 285 292 287 281 275 281 299 304 305 309 307 292 290 287 284 271 277 278 263 262 257 244 256 255 250
247 194 268 244 262 154 170 256 255 273 273 277 282 273 289 284 288 291 311 306 289 284 285 287 296 302 304 300 299 287 284 285 289 281 273 277 280 273 257 256 256 260 255